Bloomington, IN

2:41 PM EDT on September 26, 2017 (GMT -0400)
Monroe County

Weather History for KBMG - January, 2012

Change the Weather History Date:

Sunday, January 29, 2012

  Actual Average Record
Temperature  
Mean Temperature 32 °F 30 °F  
Max Temperature 42 °F 39 °F 67 °F (2013)
Min Temperature 22 °F 21 °F 0 °F (2014)
Degree Days  
Heating Degree Days 33 35  
Month to date heating degree days 915 1037  
Since 1 July heating degree days 2653 3110  
Cooling Degree Days 0 0  
Month to date cooling degree days 0 0  
Year to date cooling degree days 0 0  
Moisture  
Dew Point 19 °F    
Average Humidity 66    
Maximum Humidity 92    
Minimum Humidity 39    
Precipitation  
Precipitation 0.00 in 0.09 in 0.45 in (2008)
Month to date precipitation 3.02 3.13  
Year to date precipitation 3.02 3.13  
Sea Level Pressure  
Sea Level Pressure 30.21 in    
Wind  
Wind Speed 10 mph (WSW)    
Max Wind Speed 25 mph    
Max Gust Speed 37 mph    
Visibility 10 miles    
Events      
T = Trace of Precipitation, MM = Missing Value Source: NWS Daily Summary

Daily Weather History Graph

Daily Weather History Graph

Search for Another Location

Airport or City:

Trip Planner

Search our weather history database for the weather conditions in past years. The results will help you decide how hot, cold, wet, or windy it might be!

Date:

Astronomy

Jan. 29, 2012 Rise Set
Actual Time 7:56 AM EST 6:03 PM EST
Civil Twilight 7:27 AM EST 6:31 PM EST
Nautical Twilight 6:55 AM EST 7:03 PM EST
Astronomical Twilight 6:24 AM EST 7:35 PM EST
Moon 10:50 AM EST (1/29) No Moon Set
Length of Visible Light 11h 04m
Length of Day
10h 07m
Waxing Crescent, 36% of the Moon is Illuminated
Jan 29
Waxing Crescent
Jan 30
First Quarter
Feb 7
Full
Feb 14
Last Quarter
Feb 21
New

Hourly Weather History & Observations

Time (EST) Temp. Windchill Dew Point Humidity Pressure Visibility Wind Dir Wind Speed Gust Speed Precip Events Conditions
12:53 AM 30.9 °F 24.3 °F 18.0 °F 59% 30.24 in 10.0 mi SW 6.9 mph - N/A   Clear
1:53 AM 33.1 °F 26.1 °F 18.0 °F 54% 30.22 in 10.0 mi SSW 8.1 mph - N/A   Mostly Cloudy
2:53 AM 34.0 °F 24.2 °F 19.0 °F 54% 30.21 in 10.0 mi SW 15.0 mph 20.7 mph N/A   Mostly Cloudy
3:53 AM 34.0 °F 26.0 °F 19.9 °F 56% 30.19 in 10.0 mi SW 10.4 mph - N/A   Clear
4:53 AM 33.1 °F 24.9 °F 19.9 °F 59% 30.18 in 10.0 mi WSW 10.4 mph 19.6 mph N/A   Clear
5:53 AM 33.1 °F 23.4 °F 19.9 °F 59% 30.17 in 10.0 mi SW 13.8 mph 19.6 mph N/A   Clear
6:53 AM 33.1 °F 24.4 °F 19.9 °F 59% 30.16 in 10.0 mi SW 11.5 mph 20.7 mph N/A   Clear
7:53 AM 32.0 °F 22.5 °F 19.9 °F 61% 30.16 in 10.0 mi SW 12.7 mph 19.6 mph N/A   Clear
8:53 AM 34.0 °F 25.5 °F 21.0 °F 59% 30.16 in 10.0 mi SW 11.5 mph - N/A   Clear
9:53 AM 36.0 °F 26.7 °F 21.0 °F 55% 30.14 in 10.0 mi SW 15.0 mph 25.3 mph N/A   Partly Cloudy
10:53 AM 37.9 °F 29.2 °F 21.0 °F 51% 30.14 in 10.0 mi WSW 15.0 mph 23.0 mph N/A   Mostly Cloudy
11:53 AM 39.9 °F 31.1 °F 21.9 °F 49% 30.15 in 10.0 mi West 17.3 mph 27.6 mph N/A   Clear
12:53 PM 41.0 °F 32.2 °F 21.9 °F 47% 30.15 in 10.0 mi West 18.4 mph 24.2 mph N/A   Overcast
1:53 PM 42.1 °F 33.1 °F 19.9 °F 41% 30.14 in 10.0 mi West 20.7 mph 34.5 mph N/A   Partly Cloudy
2:53 PM 41.0 °F 33.1 °F 19.9 °F 43% 30.16 in 10.0 mi WNW 15.0 mph 31.1 mph N/A   Scattered Clouds
3:53 PM 39.0 °F 31.0 °F 19.9 °F 46% 30.21 in 10.0 mi WNW 13.8 mph 28.8 mph N/A   Scattered Clouds
4:53 PM 37.0 °F 27.7 °F 15.1 °F 41% 30.24 in 10.0 mi WNW 16.1 mph 21.9 mph N/A   Clear
5:53 PM 35.1 °F 26.9 °F 15.1 °F 44% 30.26 in 10.0 mi West 11.5 mph - N/A   Clear
6:53 PM 32.0 °F 26.4 °F 16.0 °F 52% 30.27 in 10.0 mi WNW 5.8 mph - N/A   Clear
7:53 PM 28.0 °F - 18.0 °F 66% 30.29 in 10.0 mi Calm Calm - N/A   Clear
8:53 PM 26.1 °F - 17.1 °F 69% 30.29 in 10.0 mi Calm Calm - N/A   Clear
9:53 PM 21.9 °F - 19.0 °F 89% 30.29 in 10.0 mi Calm Calm - N/A   Clear
10:53 PM 24.1 °F - 17.1 °F 75% 30.28 in 10.0 mi Calm Calm - N/A   Clear
11:53 PM 23.0 °F - 18.0 °F 81% 30.29 in 10.0 mi Calm Calm - N/A   Clear